Fairbanks Eiels, AK

2:21 AM AKDT on May 22, 2018 (GMT -0800)
Eielson Air Force Base

Weather History for PAEI - May, 2018

Change the Weather History Date:

Thursday, May 17, 2018

  Actual Average Record
Temperature  
Mean Temperature 45 °F -  
Max Temperature 58 °F 59 °F 78 °F (2015)
Min Temperature 33 °F 36 °F 24 °F (1967)
Degree Days  
Heating Degree Days 20    
Moisture  
Dew Point 32 °F    
Average Humidity 56    
Maximum Humidity 82    
Minimum Humidity 38    
Precipitation  
Precipitation 0.00 in - - ()
Sea Level Pressure  
Sea Level Pressure 30.17 in    
Wind  
Wind Speed 3 mph (North)    
Max Wind Speed 9 mph    
Max Gust Speed -    
Visibility 10 miles    
Events      
Averages and records for this station are not official NWS values.
T = Trace of Precipitation, MM = Missing Value Source: NWS Daily Summary

Daily Weather History Graph

Daily Weather History Graph

Search for Another Location

Airport or City:

Astronomy

May. 17, 2018 Rise Set
Actual Time 4:20 AM AKDT 11:12 PM AKDT
Civil Twilight 2:17 AM AKDT 1:12 AM AKDT
Nautical Twilight Sun does not set Sun does not set
Astronomical Twilight Sun does not set Sun does not set
Moon 6:31 AM AKDT (5/17) 12:46 AM AKDT (5/17)
Length of Visible Light 22h 55m
Length of Day
18h 52m
Waxing Crescent, 8% of the Moon is Illuminated
May 17
Waxing Crescent
May 21
First Quarter
May 29
Full
Jun 6
Last Quarter
Jun 13
New

Hourly Weather History & Observations

Time (AKDT) Temp. Windchill Dew Point Humidity Pressure Visibility Wind Dir Wind Speed Gust Speed Precip Events Conditions
12:56 AM 36.5 °F - 31.3 °F 81% 30.20 in 10.0 mi Calm Calm - N/A   Scattered Clouds
2:56 AM 36.7 °F - 30.2 °F 77% 30.21 in 10.0 mi Calm Calm - N/A   Overcast
3:56 AM 35.1 °F 32.2 °F 28.9 °F 78% 30.21 in 10.0 mi SSE 3.5 mph - N/A   Overcast
4:56 AM 33.3 °F - 28.4 °F 82% 30.21 in 10.0 mi Calm Calm - N/A   Overcast
5:56 AM 35.6 °F - 30.0 °F 80% 30.22 in 10.0 mi Calm Calm - N/A   Overcast
6:11 AM 37.4 °F 34.9 °F 28.4 °F 70% 30.22 in 10.0 mi North 3.5 mph - N/A   Overcast
6:56 AM 38.5 °F - 30.9 °F 74% 30.22 in 10.0 mi Calm Calm - N/A   Overcast
7:56 AM 40.3 °F - 30.6 °F 68% 30.22 in 10.0 mi Calm Calm - N/A   Overcast
8:56 AM 43.9 °F 42.3 °F 33.3 °F 66% 30.21 in 10.0 mi NNW 3.5 mph - 0.00 in   Overcast
9:56 AM 49.1 °F - 33.3 °F 54% 30.20 in 10.0 mi North 8.1 mph - N/A   Overcast
10:56 AM 51.6 °F - 32.5 °F 48% 30.20 in 10.0 mi NNE 6.9 mph - N/A   Scattered Clouds
11:56 AM 53.4 °F - 32.0 °F 44% 30.19 in 10.0 mi WNW 5.8 mph - N/A   Mostly Cloudy
12:56 PM 54.1 °F - 32.2 °F 43% 30.18 in 10.0 mi North 8.1 mph - N/A   Mostly Cloudy
1:56 PM 55.0 °F - 30.6 °F 39% 30.17 in 10.0 mi Calm Calm - N/A   Mostly Cloudy
2:56 PM 55.6 °F - 31.6 °F 40% 30.16 in 10.0 mi NW 6.9 mph - N/A   Mostly Cloudy
3:56 PM 56.3 °F - 32.4 °F 40% 30.15 in 10.0 mi WNW 4.6 mph - N/A   Overcast
4:56 PM 57.7 °F - 32.4 °F 38% 30.14 in 10.0 mi NNW 8.1 mph - N/A   Mostly Cloudy
5:56 PM 56.1 °F - 31.5 °F 39% 30.13 in 10.0 mi NW 4.6 mph - N/A   Overcast
6:56 PM 55.9 °F - 32.0 °F 40% 30.13 in 10.0 mi North 9.2 mph - N/A   Overcast
7:56 PM 55.4 °F - 32.0 °F 41% 30.13 in 10.0 mi North 8.1 mph - N/A   Mostly Cloudy
8:56 PM 54.9 °F - 31.6 °F 41% 30.12 in 10.0 mi NNE 4.6 mph - N/A   Mostly Cloudy
9:56 PM 54.0 °F - 33.1 °F 45% 30.11 in 10.0 mi NNE 4.6 mph - N/A   Overcast
10:56 PM 52.9 °F - 34.2 °F 49% 30.11 in 10.0 mi North 4.6 mph - N/A   Mostly Cloudy
11:56 PM 49.8 °F - 35.2 °F 57% 30.10 in 10.0 mi North 3.5 mph - N/A   Overcast